Theta_e
337 337 338 337 339 337 337 336 336 333 333 333 331 328 328 327 326 325 325 324 323 322 320 320 319 318 317 317 317 316 316 315 314 313 312 310 311 312 312 310 311 312 313 316 320 324 326 328 330 332 333 333 333 331 329 326 325 325 324 323 324 326 322 324 322 321 320 320 321 321 321 321 321 320 321 322 322 324 323 324 324 325 326 325 325
337 337 337 336 337 335 336 334 332 333 332 330 329 329 326 326 325 324 324 323 322 321 321 320 318 318 317 318 317 316 317 315 314 313 312 311 311 310 307 311 307 312 311 313 315 318 321 324 326 329 331 332 332 333 332 333 331 326 325 324 323 326 327 324 323 322 320 320 319 319 320 320 320 320 320 320 321 322 323 322 322 322 323 324 324
331 331 330 329 329 328 328 331 331 330 331 328 328 328 326 325 325 324 323 323 321 321 320 320 320 318 318 317 316 316 316 315 314 314 312 311 310 309 316 307 310 309 311 311 313 314 316 318 321 324 326 329 331 332 331 332 330 327 326 325 324 323 326 326 324 322 321 320 319 319 320 319 319 320 319 319 320 321 321 321 321 321 321 322 322
327 327 327 326 325 324 324 325 325 324 324 325 325 325 323 323 323 323 323 322 321 321 321 320 319 319 318 317 317 316 315 314 314 312 311 313 310 311 310 312 309 309 311 310 310 312 313 315 317 318 321 324 327 330 331 331 331 331 330 326 324 323 323 323 325 323 322 321 320 319 319 319 319 319 319 319 319 320 320 320 320 321 320 321 321
325 325 323 323 324 323 322 321 322 322 322 323 323 323 323 322 322 323 323 322 321 321 321 320 319 318 318 317 317 316 316 315 314 313 312 312 310 308 311 309 308 310 309 310 310 309 311 313 314 316 318 321 324 325 327 328 329 331 331 331 332 325 324 324 326 324 323 322 321 321 320 319 319 319 320 320 319 319 319 319 320 320 320 320 320
324 322 322 321 319 318 318 317 318 319 321 323 323 324 322 322 322 322 319 321 320 320 319 319 319 318 318 317 316 316 316 314 313 313 313 313 312 313 310 309 308 311 311 309 310 309 309 310 311 313 315 317 318 319 321 324 326 328 330 331 332 332 330 326 323 326 325 323 323 322 320 320 319 319 319 319 319 319 318 318 318 318 319 320 320
321 321 320 320 318 316 316 316 317 318 319 320 320 319 320 320 321 321 321 320 320 320 318 318 317 317 317 316 315 315 314 313 313 314 312 315 311 312 312 310 308 309 308 305 308 308 309 308 309 309 310 312 312 314 316 320 323 325 327 329 332 331 331 332 332 327 325 325 324 323 321 320 319 319 319 319 319 319 319 318 318 318 318 319 319
320 320 318 318 317 316 315 315 316 317 316 317 317 316 317 317 316 317 317 319 318 318 318 317 316 314 315 314 314 313 312 313 315 313 312 309 310 310 309 308 308 306 303 307 306 311 309 308 307 309 309 309 310 311 312 315 318 320 322 326 327 329 329 330 331 331 328 326 324 322 320 320 320 320 319 319 319 319 320 320 319 318 318 318 318
311 313 314 314 314 314 314 312 312 311 311 312 311 313 315 315 313 313 314 314 313 311 310 310 310 310 312 312 313 312 312 312 311 309 309 309 307 306 308 308 307 305 306 305 306 305 309 306 308 308 308 310 310 311 311 312 313 315 318 321 322 323 324 327 328 329 329 329 323 322 321 321 321 320 319 319 319 319 319 319 319 319 319 318 318
307 308 308 309 310 309 309 309 309 309 308 307 307 309 310 310 310 311 309 307 305 305 304 305 307 308 309 310 311 311 311 311 309 305 305 305 305 304 304 305 305 305 304 305 305 304 305 306 308 310 309 309 310 310 311 311 312 313 314 314 315 317 318 321 324 326 327 327 325 324 322 322 322 321 321 320 319 319 319 319 319 319 319 319 319
306 306 305 306 306 306 306 307 307 306 306 306 306 307 308 308 308 309 307 305 304 304 303 304 306 307 308 308 308 309 310 309 307 306 306 307 304 304 307 304 304 304 304 305 303 304 304 305 304 305 306 309 309 309 310 311 311 311 312 313 313 314 315 317 320 322 325 326 326 327 324 322 321 320 321 320 320 321 320 320 319 320 319 319 318
306 306 305 305 306 305 305 306 306 305 304 304 304 304 305 307 306 306 306 304 304 303 303 303 305 306 305 306 308 309 307 306 305 305 307 307 304 304 303 302 303 304 304 304 305 304 304 303 303 303 303 305 308 310 309 309 308 310 312 314 315 315 315 315 316 318 321 323 325 326 326 326 326 322 322 321 321 321 321 320 320 320 319 319 319
304 305 305 304 305 305 305 304 304 304 303 302 303 303 303 304 306 305 304 302 301 302 302 303 303 302 304 306 307 307 304 304 303 305 305 304 304 303 302 302 303 303 303 304 304 304 304 304 303 303 303 304 303 305 307 309 309 310 309 310 311 313 314 315 315 314 315 317 320 322 324 325 326 326 325 323 323 322 321 321 320 320 320 320 319
300 301 302 302 302 302 303 303 303 302 302 302 302 302 302 302 303 303 304 301 299 300 301 301 299 297 298 301 304 304 302 302 302 302 302 304 304 302 303 303 302 302 303 303 303 303 303 303 303 303 303 303 303 302 304 303 305 305 307 309 311 311 312 313 313 314 314 314 314 316 318 321 323 325 325 326 325 322 322 323 322 321 321 321 321
298 298 298 299 299 299 299 300 300 301 299 299 299 299 300 300 300 300 301 302 300 301 300 300 296 297 301 300 298 299 299 301 301 301 302 303 303 302 303 301 300 300 301 301 300 301 302 302 302 302 302 302 302 302 302 301 302 302 305 305 306 309 310 311 312 312 313 314 314 315 315 316 317 320 322 323 325 326 324 322 323 322 323 321 321
296 296 296 296 296 296 296 296 296 297 296 294 295 295 295 296 297 298 300 298 298 298 300 299 298 296 293 295 297 299 296 295 295 300 303 302 301 301 301 300 298 298 300 299 298 299 299 299 301 301 302 302 302 302 302 302 302 301 301 301 304 306 310 312 313 313 314 314 315 315 316 315 316 315 316 318 321 324 326 322 321 323 323 324 323
294 295 295 295 295 295 295 294 294 295 294 293 292 293 294 294 294 294 295 295 293 295 297 298 297 298 295 293 293 293 291 292 294 299 298 299 300 300 301 298 295 296 298 298 298 298 297 298 299 300 301 302 302 302 301 302 302 301 300 299 303 306 306 311 312 313 313 314 314 315 315 315 316 317 317 317 317 319 322 324 325 325 325 325 325
294 294 294 294 294 294 294 293 293 293 293 293 292 292 293 293 293 292 292 294 292 291 291 294 294 295 297 296 295 291 290 292 292 287 293 301 299 298 298 297 295 295 298 294 296 296 294 295 298 298 299 300 301 301 301 301 300 301 300 301 304 305 306 307 309 310 310 310 311 312 313 315 315 316 317 317 317 317 318 319 321 322 323 324 325
293 293 293 293 293 293 293 293 292 292 292 292 291 291 292 292 293 292 291 292 292 289 289 289 291 292 293 293 293 295 296 291 286 289 285 291 293 293 295 295 293 294 295 293 295 294 293 294 296 296 298 299 300 300 302 301 302 301 304 302 304 305 306 305 305 306 309 310 311 311 312 312 313 314 315 316 317 318 318 318 318 319 319 320 322
292 292 292 292 293 293 293 292 291 292 291 291 291 292 292 293 292 293 292 291 290 289 289 289 287 288 290 290 290 292 294 295 294 288 285 283 285 293 297 292 292 292 292 292 293 293 292 293 295 295 296 298 299 299 301 301 302 302 300 301 303 304 304 304 305 304 305 307 309 310 311 311 312 313 314 314 315 317 318 318 319 318 318 319 319
292 292 292 292 292 292 292 291 291 291 291 292 291 292 291 291 291 291 291 291 291 290 289 289 289 288 289 289 289 288 289 290 290 289 285 283 283 285 285 289 290 293 290 292 292 292 292 293 294 294 295 297 297 298 298 299 299 300 300 300 302 303 302 303 303 304 304 304 305 306 307 309 309 310 310 312 313 316 316 317 318 319 319 319 319
290 291 291 291 291 291 291 291 290 290 290 291 291 290 291 291 291 290 290 290 291 290 289 289 290 289 289 289 287 287 287 287 287 286 286 287 283 283 285 284 283 286 289 290 291 291 292 293 293 293 295 295 295 296 297 297 297 300 301 300 300 301 301 301 301 302 302 302 302 303 306 307 309 310 310 310 311 312 314 316 316 317 318 319 319
289 290 290 291 290 290 290 290 290 289 289 289 289 290 289 289 290 290 289 289 289 289 289 290 289 289 289 288 287 287 285 285 285 285 285 284 283 283 284 285 285 284 287 289 289 291 292 293 292 292 293 293 293 294 294 294 295 297 295 300 299 299 298 299 300 300 300 301 302 302 304 304 306 308 310 310 311 311 312 313 314 317 317 317 318
289 289 289 290 289 289 289 289 289 288 288 289 289 289 289 289 289 289 288 288 289 288 288 287 288 287 288 288 288 288 288 287 287 287 286 285 285 283 283 284 285 285 288 288 290 290 292 292 292 292 293 293 292 292 292 293 294 294 296 296 298 297 298 299 299 299 300 301 302 302 303 304 305 305 306 308 310 311 312 311 312 313 316 318 318
288 288 288 288 288 288 288 288 288 288 288 289 289 289 289 288 288 288 288 287 287 288 287 287 287 286 286 287 288 287 287 288 287 287 287 286 285 282 283 285 282 283 285 286 286 289 291 290 291 293 294 294 294 293 293 293 293 293 293 294 296 296 296 297 298 298 299 300 301 301 302 303 304 305 306 307 308 310 311 311 311 311 312 314 317
287 287 288 288 288 288 288 288 288 288 288 288 288 288 288 288 287 287 287 287 287 287 287 287 287 287 287 286 286 286 287 288 286 286 285 285 283 282 282 283 283 282 284 284 286 285 288 293 293 292 291 291 292 292 292 292 293 293 293 292 293 295 295 295 296 297 298 299 300 300 300 300 302 303 304 305 307 308 309 310 311 312 312 311 312
287 287 288 288 288 287 287 287 287 287 287 287 287 287 287 287 286 287 287 286 286 286 286 286 286 286 286 286 285 286 286 286 286 286 286 285 284 283 282 280 280 282 281 283 284 284 285 287 289 289 291 291 291 291 291 292 292 293 291 293 291 292 294 295 296 297 298 298 299 299 299 300 300 301 301 302 303 305 306 308 308 310 310 310 310
287 287 287 287 287 287 287 286 286 286 286 285 285 285 286 286 285 285 285 287 285 286 285 285 285 285 285 286 285 285 286 286 286 285 285 286 285 285 284 282 279 277 280 280 281 282 286 285 287 289 289 290 291 291 292 291 291 292 290 290 290 290 293 294 296 297 298 298 298 299 299 299 299 300 300 300 301 301 301 302 303 304 305 306 307
287 287 286 286 286 286 286 286 285 285 285 285 284 284 285 285 284 284 284 284 284 285 285 284 284 285 284 285 284 285 285 285 285 285 285 285 285 285 284 282 282 279 277 277 279 280 282 285 283 286 289 289 289 290 289 289 290 289 290 290 290 290 292 294 295 296 297 297 297 297 297 298 299 299 299 299 299 300 301 302 302 303 304 304 306
286 287 286 285 285 285 285 285 285 284 284 284 284 283 284 284 284 284 284 284 283 284 284 284 284 284 283 283 283 283 284 284 284 284 284 284 284 284 284 284 283 280 279 277 277 281 281 284 285 284 286 287 288 288 289 288 290 290 289 289 289 289 292 293 294 294 295 296 296 297 297 297 297 298 298 298 299 300 300 301 302 303 303 304 306
285 285 285 284 284 284 284 283 283 283 283 283 283 282 283 283 283 283 283 282 282 282 283 283 283 283 282 282 283 282 283 283 283 283 283 283 283 283 283 283 282 282 280 279 276 280 283 281 283 285 285 286 287 287 288 288 289 289 289 288 288 290 291 291 293 293 294 295 295 294 295 296 296 296 297 298 298 300 300 301 301 302 303 303 304
284 284 283 283 283 283 283 282 282 282 282 282 282 281 282 282 282 282 282 281 281 281 282 282 283 282 282 281 281 281 282 282 282 282 282 282 282 282 282 282 282 282 281 279 278 277 282 282 283 284 285 285 285 285 285 286 288 288 288 288 288 289 288 288 290 292 292 292 293 294 294 295 296 296 296 296 297 298 298 299 300 301 302 302 303
283 283 282 282 282 282 282 281 281 281 281 281 281 281 281 280 280 281 281 280 280 280 280 280 281 281 281 280 280 281 282 281 281 281 281 281 281 281 281 281 280 281 280 279 277 277 280 282 282 282 284 284 283 284 284 284 285 286 287 287 287 287 287 287 288 290 291 292 292 293 294 294 295 295 296 296 296 297 297 299 300 300 300 301 302
282 282 281 281 281 281 281 280 280 280 280 280 280 279 279 279 279 280 280 279 279 279 279 279 280 281 280 279 279 280 281 280 280 279 279 279 279 279 279 279 279 279 280 278 277 277 276 279 279 281 281 283 281 284 283 283 283 284 284 284 286 286 286 287 287 287 291 291 292 292 293 294 294 295 296 295 296 296 297 298 298 298 299 300 300
281 281 281 280 280 280 280 280 279 279 279 278 279 278 278 278 277 278 279 278 278 277 278 278 278 279 278 278 278 279 280 278 278 278 279 278 279 278 278 278 278 278 278 278 277 275 275 276 279 278 280 281 281 281 282 283 283 283 283 283 284 285 286 286 286 287 289 290 291 292 293 293 294 294 294 294 295 295 295 296 297 297 297 298 299
280 280 280 279 279 279 279 279 278 278 278 278 277 277 277 277 277 277 277 277 277 277 277 277 278 278 277 277 277 278 277 277 277 277 277 278 277 277 277 277 277 277 278 278 278 276 276 275 277 277 279 278 279 281 281 282 282 282 282 283 283 283 284 285 285 285 287 289 290 291 291 292 292 293 293 293 294 294 294 294 295 296 296 296 297
280 279 279 279 278 278 278 277 277 277 277 277 276 276 276 276 276 276 276 277 277 277 277 277 278 277 277 276 277 277 277 276 276 276 276 276 276 276 276 276 276 277 277 277 277 277 275 274 275 277 277 277 278 279 280 279 279 280 281 280 281 281 282 283 284 286 288 289 289 289 290 290 291 292 292 293 293 293 293 294 294 295 295 295 296
279 279 278 278 277 277 277 276 276 276 276 276 275 275 275 276 276 276 276 277 277 277 277 277 277 277 276 276 276 276 276 275 275 275 276 275 275 275 275 275 275 276 275 275 276 275 275 274 274 274 276 275 276 276 278 278 277 277 278 279 280 281 281 281 282 284 284 284 284 285 286 287 288 289 290 291 291 292 292 293 294 294 294 294 295
277 277 277 276 277 276 276 275 275 275 275 275 275 275 275 275 275 276 276 277 277 277 277 277 277 277 277 276 276 276 275 275 275 275 275 274 274 274 274 274 274 274 274 274 274 274 274 273 273 274 273 274 274 273 276 277 277 276 275 276 277 279 280 279 279 280 282 283 285 286 287 287 288 288 289 290 291 292 292 292 292 293 292 293 293
276 276 276 275 276 275 275 275 275 274 274 274 274 274 274 275 275 276 276 276 276 276 276 276 276 276 276 276 276 276 276 275 275 275 274 273 274 273 274 274 274 273 273 273 273 272 272 272 271 271 272 272 273 275 276 276 275 275 277 276 274 275 276 278 278 278 280 280 280 281 284 285 286 287 288 289 290 291 291 292 292 292 291 292 292
276 275 275 275 275 275 274 274 274 274 273 274 274 273 273 274 275 275 275 275 275 275 275 275 276 276 276 276 276 276 276 276 277 276 276 276 274 273 273 273 273 272 272 272 272 271 271 271 271 272 271 271 272 272 272 272 272 272 274 275 274 275 275 275 277 279 279 278 279 279 279 281 281 282 283 284 285 286 286 288 290 291 291 292 294
275 275 274 274 274 274 273 273 273 273 273 274 273 273 275 275 275 275 275 275 275 275 274 274 274 275 275 275 276 276 276 276 276 276 276 276 276 275 274 273 272 272 271 271 270 270 270 269 269 270 269 269 270 271 271 272 273 274 273 273 272 273 274 274 275 276 278 278 277 276 278 280 280 280 280 280 282 283 283 283 284 286 288 290 291
274 273 273 273 274 273 273 273 272 273 273 273 273 275 276 276 275 274 274 274 274 274 274 274 273 274 274 274 274 275 275 275 274 275 275 275 276 276 276 276 275 273 271 270 270 270 269 269 270 270 269 269 270 272 272 272 273 273 273 273 273 273 272 271 270 275 278 278 277 276 276 279 279 278 279 280 281 282 282 283 286 287 288 289 290
273 273 273 273 272 272 272 272 272 272 272 273 274 275 275 276 276 275 274 274 274 274 274 273 273 273 273 273 274 274 273 273 273 272 273 274 275 275 275 275 275 275 276 273 271 270 270 270 270 270 270 270 271 272 272 272 272 273 273 273 273 272 272 272 272 271 276 279 276 275 275 278 279 278 278 279 280 281 282 285 287 288 289 289 289
272 272 273 272 272 272 271 271 271 271 271 273 274 274 275 275 276 275 274 273 273 273 273 273 273 273 273 272 272 272 272 273 273 272 272 271 273 274 275 275 275 275 275 276 276 274 273 272 271 271 271 272 271 272 273 273 274 272 273 273 273 273 273 272 273 274 276 278 276 275 274 276 277 277 276 278 280 281 282 285 286 287 288 289 289
272 272 271 270 271 270 270 270 270 270 271 272 273 274 274 275 275 275 273 273 273 273 272 272 272 272 272 271 271 270 271 271 271 271 271 271 271 271 272 272 272 273 275 276 276 277 276 274 273 271 273 274 272 273 274 275 274 273 273 272 273 273 273 273 275 275 277 279 276 274 273 275 277 277 276 278 280 281 282 284 286 287 288 289 289
271 270 270 269 269 269 268 269 268 268 269 272 273 273 274 274 274 274 273 272 272 272 272 272 271 271 271 271 271 270 270 270 271 272 271 271 271 271 271 271 272 272 273 273 273 273 274 274 274 274 274 275 275 275 275 276 275 275 275 274 275 275 275 276 276 277 277 278 277 275 271 275 277 276 275 276 278 278 279 282 284 284 286 288 289
270 270 270 269 268 267 267 267 267 267 268 271 272 272 273 273 274 272 271 271 270 270 270 271 271 271 271 271 270 270 270 270 272 274 274 273 272 271 271 272 272 273 273 276 278 278 276 276 276 275 275 276 278 277 277 277 277 277 277 277 277 276 275 273 272 274 274 276 277 275 273 273 276 274 274 276 276 276 277 278 282 284 285 286 287
269 269 268 268 267 267 266 266 265 266 267 269 270 271 272 273 272 270 270 270 270 270 270 270 270 270 271 271 271 270 270 270 273 275 276 275 272 272 272 272 272 273 273 275 278 279 280 280 280 280 281 281 281 282 281 282 279 279 277 275 273 274 272 271 271 272 272 275 276 276 274 273 275 274 273 275 275 275 276 277 278 282 285 286 286
268 268 267 267 266 266 265 265 265 265 265 267 270 271 272 272 272 270 270 269 269 269 269 270 270 270 271 272 272 271 271 271 274 276 277 276 273 273 273 272 272 272 273 275 275 276 279 280 280 280 280 280 280 281 281 280 280 279 275 272 274 274 272 271 270 271 273 274 275 277 273 272 274 274 273 274 275 275 276 276 278 279 282 283 285
267 267 266 266 266 265 265 265 266 265 265 266 268 270 270 271 271 270 270 269 269 269 269 269 270 270 271 272 273 273 273 274 276 277 277 276 274 274 273 273 272 272 273 275 275 275 275 275 276 276 277 277 277 277 277 280 280 279 277 275 275 273 272 272 271 271 270 272 275 277 272 272 272 273 273 271 269 273 275 275 276 277 278 279 279
Wind_Speed
5 4 2 2 2 4 1 2 3 4 3 2 3 4 3 2 2 2 3 3 2 3 1 4 3 4 3 3 3 3 2 2 3 3 2 2 3 4 4 2 4 6 6 7 9 10 10 10 11 11 11 8 9 7 7 5 6 5 3 4 7 10 2 8 5 2 1 0 3 4 5 6 6 5 6 7 6 6 3 1 3 3 3 3 5
3 3 5 5 3 2 5 5 5 2 3 5 2 2 3 3 3 2 1 2 3 2 1 2 2 2 3 2 1 2 2 2 2 2 3 3 2 1 4 1 3 5 6 7 7 8 9 10 10 11 11 11 8 8 7 10 9 7 4 6 4 7 14 9 7 6 3 1 1 3 4 5 5 5 5 6 7 8 9 5 3 3 3 5 4
5 5 4 5 5 6 5 4 4 5 4 4 2 3 4 4 2 1 1 2 2 1 2 1 1 2 2 1 1 1 1 1 1 2 2 2 2 3 2 5 2 3 5 6 7 8 8 10 9 11 11 11 11 9 6 8 6 7 6 6 6 3 10 10 9 7 5 4 4 3 3 2 4 5 5 4 6 8 7 6 7 6 7 6 6
6 5 5 6 5 5 5 5 5 6 5 4 4 5 5 3 3 1 1 1 1 1 2 0 0 1 1 1 1 1 1 0 1 1 1 1 2 2 2 1 7 4 3 4 6 7 9 8 10 11 11 12 11 10 12 11 9 8 9 7 7 4 7 6 10 9 8 6 4 4 4 3 4 4 5 6 4 6 7 7 7 8 8 8 9
6 5 6 6 6 6 6 5 5 4 3 4 5 4 3 3 2 2 1 0 0 1 1 2 1 0 1 1 1 2 1 1 1 1 1 1 1 1 1 2 2 7 5 3 3 4 6 8 10 10 11 12 13 13 12 12 11 11 9 10 13 8 7 9 11 10 10 9 7 6 5 5 4 5 6 6 7 6 5 7 9 8 7 8 7
5 6 6 6 6 7 7 6 4 3 3 2 3 1 2 2 1 2 1 1 2 2 3 3 3 1 1 0 2 1 1 2 1 1 1 1 1 1 1 1 1 1 2 7 4 1 5 8 8 9 10 11 12 13 14 13 13 12 13 13 13 13 14 10 5 12 11 9 10 7 6 6 5 5 5 5 7 7 7 8 7 9 9 8 9
7 6 7 6 6 6 6 5 4 4 5 4 4 4 2 1 1 1 0 1 2 2 2 4 4 3 3 2 2 2 2 2 1 1 1 1 1 1 1 1 2 2 2 3 5 4 4 5 6 7 8 9 10 11 12 13 13 13 13 14 14 13 13 14 16 9 9 9 11 8 8 7 6 6 6 6 9 8 8 8 8 9 10 10 11
8 7 7 7 7 7 7 6 5 5 5 5 4 4 4 3 5 6 5 3 3 4 4 4 4 4 4 4 4 3 4 3 1 1 1 2 2 1 2 2 2 3 3 2 3 3 4 3 6 7 7 7 8 9 10 11 12 13 14 14 14 14 14 15 15 16 12 10 4 3 4 6 6 7 6 7 9 10 10 9 9 9 9 10 11
10 9 8 8 8 8 7 7 6 6 5 4 5 4 4 3 5 6 5 5 6 7 6 6 6 6 5 4 3 3 3 3 3 3 1 1 2 2 2 2 2 3 2 4 3 3 2 1 4 7 6 6 7 9 9 10 10 11 12 13 15 15 14 14 14 16 16 17 4 5 6 6 8 7 6 8 10 10 10 10 10 10 11 9 9
11 9 9 8 8 8 7 8 6 6 5 6 6 6 6 6 5 6 7 7 6 6 7 6 5 5 5 5 4 3 3 3 3 1 2 4 4 4 4 3 4 5 4 3 4 4 4 4 5 5 5 4 6 10 11 11 11 11 11 12 13 14 14 13 14 14 15 14 13 9 7 8 10 11 11 11 11 10 10 9 11 11 12 10 10
9 8 8 7 7 7 7 7 7 7 7 7 7 7 6 6 7 5 6 7 6 6 6 6 5 5 4 5 5 5 3 3 3 3 2 3 3 2 2 4 4 4 4 3 4 5 5 5 5 5 4 1 5 9 10 11 12 12 12 13 13 13 14 14 14 14 13 14 13 14 11 10 9 11 13 12 12 14 12 11 11 12 13 11 9
9 8 7 7 6 7 8 8 8 8 8 9 8 8 8 6 7 7 6 6 7 6 7 7 5 5 6 6 4 2 5 4 3 2 2 3 3 3 4 5 5 4 4 3 3 4 4 5 5 6 6 8 10 7 7 10 9 10 11 12 13 14 14 14 14 14 15 14 14 14 14 14 13 13 13 13 15 15 14 15 14 14 14 14 13
10 10 10 9 9 8 9 9 9 9 9 9 9 9 9 8 4 6 7 6 7 7 9 8 5 5 5 4 1 6 6 4 3 5 3 3 3 4 5 5 5 5 4 3 3 3 3 4 4 4 4 4 6 9 9 9 7 6 12 15 15 15 16 15 15 15 15 16 16 15 15 15 14 15 14 15 15 17 15 14 14 14 16 13 11
10 10 10 9 9 8 9 9 9 9 9 9 10 9 10 10 8 4 6 7 7 9 9 9 6 7 6 4 2 5 5 4 9 6 6 2 3 4 4 5 6 6 4 5 5 5 4 4 4 4 4 4 4 4 5 6 6 11 14 14 14 15 15 15 16 16 16 16 16 17 17 17 16 16 16 15 15 17 16 17 17 16 17 16 15
11 10 9 10 10 9 9 9 10 9 9 9 10 11 10 11 11 9 5 6 6 8 10 11 7 9 5 3 3 1 2 2 10 5 4 5 4 5 5 6 8 7 5 5 5 6 5 5 5 5 5 5 5 4 4 5 6 10 10 11 11 13 15 15 16 16 16 16 16 17 17 17 17 17 17 17 17 16 17 18 16 17 18 16 14
11 11 10 10 10 9 9 9 9 9 8 9 10 10 11 10 11 11 9 7 8 8 9 11 10 10 7 6 4 3 3 6 11 4 3 6 6 6 6 6 8 7 5 5 6 5 6 6 6 5 5 5 5 5 4 4 7 7 9 9 8 14 15 15 15 15 16 15 16 16 16 17 17 18 17 18 18 18 18 17 17 16 16 16 17
10 11 10 10 10 9 9 9 9 9 8 9 9 10 9 9 10 10 11 8 8 7 8 10 12 10 7 6 5 5 6 7 11 0 7 5 5 6 5 7 9 8 5 5 5 5 6 6 6 6 6 5 4 4 4 4 4 6 6 9 11 13 13 15 15 16 16 16 16 16 17 17 17 18 18 18 18 19 19 18 18 18 18 18 16
10 11 11 10 10 10 9 9 9 8 8 8 8 9 10 10 10 9 10 10 7 8 8 7 9 10 9 7 5 4 6 8 6 5 9 2 5 7 6 7 8 8 4 6 6 5 7 6 6 6 6 5 4 4 4 3 5 4 4 6 14 14 14 15 16 16 16 16 16 16 17 17 18 18 18 19 19 19 19 19 19 20 19 18 19
10 10 10 10 10 9 9 9 9 9 8 8 9 9 8 9 8 9 9 8 8 8 8 7 6 8 7 7 6 4 4 5 5 7 8 3 5 6 5 6 8 7 5 7 6 5 7 6 6 6 5 4 4 3 3 3 5 4 6 11 14 15 15 15 15 15 16 17 17 17 17 17 18 18 19 19 19 19 19 20 19 20 20 20 20
10 10 10 10 9 9 9 9 9 8 8 8 8 8 7 7 8 8 7 7 8 7 7 7 7 6 7 7 6 5 4 3 3 5 6 10 10 3 1 7 5 4 5 7 6 6 7 6 5 6 5 4 4 3 3 3 2 2 4 11 14 15 15 15 14 14 15 16 17 18 18 18 17 18 18 19 19 19 20 19 20 19 20 20 20
10 10 10 10 9 9 9 8 8 8 7 7 7 7 8 8 8 8 8 7 7 7 6 6 6 6 6 6 6 6 5 4 4 4 5 8 8 8 11 5 3 2 5 5 5 6 6 6 5 5 5 4 4 4 3 3 3 2 3 8 12 14 15 15 15 14 14 15 17 18 18 18 19 18 18 19 19 19 19 20 20 20 20 20 20
8 9 9 9 9 8 8 8 8 7 7 7 7 7 7 7 7 7 7 7 6 6 6 6 5 5 6 5 5 5 5 5 5 6 5 4 8 11 9 13 12 6 5 5 7 6 5 5 4 5 5 3 3 4 3 4 3 2 2 5 8 11 13 14 15 15 15 15 16 17 18 18 18 19 19 19 18 18 19 19 20 20 21 21 21
7 8 9 8 8 8 8 8 7 7 7 7 7 6 6 6 6 7 8 8 6 6 6 6 6 5 6 5 5 5 6 6 7 6 7 7 8 8 9 8 10 13 6 6 7 6 5 4 5 5 5 4 4 4 4 5 6 2 1 2 5 8 12 15 15 14 15 16 17 17 17 17 18 18 19 19 19 19 18 19 19 20 20 20 21
7 7 7 8 7 7 7 7 7 7 7 6 7 6 6 6 6 6 6 6 6 6 6 6 7 5 6 5 5 5 4 4 5 5 6 7 7 9 9 10 9 7 8 8 6 6 4 5 6 6 6 5 5 6 7 6 6 4 1 3 5 9 14 16 16 15 15 15 16 17 17 17 18 18 18 19 19 20 20 19 19 20 20 20 21
6 6 7 8 7 7 7 7 6 7 7 7 6 7 6 5 6 6 6 7 6 6 5 6 6 6 5 5 4 5 4 4 4 5 5 6 6 8 8 7 11 12 8 8 7 4 5 7 6 5 4 4 4 5 6 7 5 4 2 4 9 9 12 14 15 16 16 15 16 16 16 17 18 18 18 18 19 19 20 20 20 20 20 20 20
6 6 6 6 6 6 6 6 6 6 6 6 6 6 6 5 6 6 6 6 5 6 4 5 4 5 5 4 5 5 4 4 5 5 6 6 6 7 9 7 8 11 9 8 8 10 4 3 3 4 5 6 6 6 5 6 6 7 7 7 9 12 13 14 16 17 17 16 16 16 16 16 17 18 18 19 19 19 20 20 20 21 21 21 21
6 5 6 6 6 6 6 6 6 6 6 6 5 5 6 5 5 5 4 4 5 5 4 4 4 5 5 4 5 4 4 4 4 5 5 5 6 7 7 11 10 7 9 8 9 8 10 8 7 6 6 8 7 7 7 5 7 11 8 6 8 14 14 17 18 19 18 17 17 17 17 16 16 17 18 18 19 19 20 20 20 21 21 22 21
5 5 5 5 5 5 5 6 6 5 5 6 6 5 5 4 4 4 5 4 4 4 4 4 4 6 5 5 4 5 4 4 4 5 4 5 5 6 6 7 9 12 10 10 9 9 7 10 8 6 7 6 6 6 7 9 8 11 10 8 9 10 14 18 20 20 19 18 18 18 18 18 17 17 18 18 18 19 19 20 20 20 20 21 21
4 4 4 5 5 5 4 4 5 4 4 4 5 4 5 3 4 3 4 5 4 4 4 3 4 5 4 5 5 5 5 5 5 4 5 6 5 5 5 6 7 9 11 12 10 12 10 7 11 8 6 8 8 8 9 9 11 13 10 10 10 9 12 18 21 21 21 21 21 21 21 20 19 19 18 19 19 20 21 21 20 20 20 21 22
4 3 3 4 3 4 4 3 3 4 4 4 4 4 4 3 3 3 3 4 4 4 3 3 4 4 4 4 5 5 5 5 5 5 6 6 6 6 6 6 6 8 9 12 14 8 9 9 8 12 10 9 10 10 9 10 12 13 10 10 10 11 16 18 20 21 22 24 24 24 24 22 21 21 20 20 21 21 21 21 21 21 21 21 22
3 3 3 3 3 3 3 3 3 3 3 3 4 4 4 3 3 3 3 4 4 4 4 3 3 4 4 5 5 5 5 5 5 5 5 5 6 6 6 6 6 8 9 9 14 11 6 9 11 8 13 13 10 11 9 9 10 12 11 11 11 14 17 15 18 21 23 23 23 23 23 23 23 22 22 22 22 22 22 22 22 22 22 22 22
3 3 3 3 3 3 2 2 2 2 3 3 3 3 3 3 3 2 3 4 4 4 4 3 3 4 5 5 5 5 5 5 5 5 5 5 6 6 6 7 7 7 8 10 12 17 10 9 13 11 9 13 13 12 13 9 10 14 9 9 10 13 11 11 15 16 19 22 23 22 23 24 24 24 23 23 23 24 23 23 23 23 23 22 22
2 2 2 1 2 1 1 2 2 2 2 3 3 3 3 3 3 3 4 4 4 4 4 5 4 4 4 5 6 5 5 5 5 5 6 6 6 6 6 6 7 7 7 9 12 15 14 8 9 10 9 10 12 10 13 13 11 9 10 10 10 11 11 11 11 15 18 21 22 22 23 23 24 24 24 24 24 25 24 24 24 23 23 22 22
3 2 2 1 1 1 0 1 1 1 2 2 3 3 3 4 4 2 3 4 5 5 5 5 5 4 4 6 6 5 5 5 6 6 6 6 6 7 6 6 7 7 6 8 10 12 17 13 10 9 9 8 12 8 9 13 15 12 12 11 10 9 9 9 9 10 16 18 21 23 23 24 24 25 25 24 25 25 25 25 23 23 22 22 22
3 2 2 2 1 1 1 0 1 1 2 2 2 2 3 3 4 4 4 5 5 5 6 6 6 5 6 6 6 6 4 6 7 7 6 7 6 7 8 7 8 8 7 7 9 12 14 15 12 11 8 7 8 10 10 9 12 14 13 12 11 9 8 9 10 8 14 19 22 22 23 23 23 24 25 25 25 25 25 26 25 24 23 23 22
4 3 2 2 2 2 1 1 1 1 1 2 2 3 3 4 4 5 5 5 5 6 6 6 6 6 6 7 6 6 6 7 7 7 6 6 6 7 8 8 8 9 8 7 8 10 11 15 13 11 10 10 8 9 9 9 11 12 11 12 12 12 12 11 11 11 13 20 22 23 23 23 24 25 25 25 25 26 27 27 26 25 24 23 22
3 3 3 3 2 2 2 1 1 1 2 2 3 3 3 4 5 5 6 5 6 6 6 6 6 6 6 7 7 6 6 7 7 6 6 8 8 7 8 8 8 8 8 8 9 9 11 13 15 11 10 10 8 9 10 11 11 11 11 12 13 14 14 13 11 10 14 17 18 19 19 20 21 22 23 24 26 27 27 26 26 26 25 25 22
3 3 3 2 2 2 2 1 0 1 2 2 3 3 4 4 5 5 5 6 6 6 6 6 6 6 6 7 7 7 7 7 7 7 7 8 8 8 9 9 9 9 9 10 9 10 11 12 13 15 11 11 12 9 10 11 12 13 12 11 12 12 12 11 10 9 9 10 10 11 15 17 18 23 25 25 25 25 25 25 25 26 24 22 21
3 4 3 3 2 2 1 1 0 1 2 2 3 3 4 5 5 6 6 6 6 6 6 6 6 7 7 7 7 7 7 7 8 7 7 8 8 9 9 9 9 9 10 9 9 11 11 12 13 12 14 11 10 12 10 10 12 11 13 13 12 10 10 12 14 12 11 12 14 20 19 18 19 17 20 23 24 26 26 25 25 26 25 23 23
4 4 3 3 3 2 2 1 0 1 2 2 2 3 4 5 5 6 6 6 7 7 7 7 7 7 7 7 7 7 7 7 7 7 8 8 8 10 9 8 9 9 9 9 10 10 10 11 11 12 11 13 12 10 10 11 11 10 9 11 13 13 12 11 12 14 12 12 13 12 13 16 16 19 22 21 23 23 23 21 21 23 25 25 24
3 3 3 3 2 3 2 2 1 1 2 2 1 2 4 5 5 6 6 7 7 8 8 7 7 7 7 7 7 7 8 10 14 13 14 13 11 11 10 9 9 9 10 9 9 9 10 10 12 11 12 13 11 12 12 11 12 13 12 12 14 13 13 14 13 11 11 13 12 13 12 11 13 12 11 11 11 17 17 21 17 17 18 21 22
4 3 3 3 3 2 1 1 1 1 2 1 1 4 5 5 6 6 6 7 7 7 8 8 8 8 8 8 8 12 14 14 15 15 16 16 16 13 12 11 10 9 9 9 10 9 10 11 11 11 12 12 12 12 13 13 13 13 13 12 13 12 12 13 13 10 10 11 12 14 13 9 10 12 11 11 11 13 12 14 13 18 22 26 26
4 4 3 3 2 2 1 1 1 2 2 2 3 7 7 9 7 7 7 7 8 8 8 9 9 9 8 8 9 10 11 11 11 13 14 15 16 17 18 17 15 12 9 10 10 10 10 11 11 11 11 14 14 12 13 12 12 12 12 11 12 12 12 13 14 11 7 11 13 14 15 10 10 13 12 11 11 11 10 11 19 22 24 26 27
3 3 3 3 2 2 1 1 2 2 3 4 7 7 8 9 9 7 7 7 7 7 8 8 9 9 10 9 8 7 7 9 9 10 12 15 16 16 16 16 16 16 16 13 11 10 10 11 11 10 12 13 14 13 12 12 12 12 12 12 12 12 13 13 13 13 9 10 14 16 17 11 9 13 14 12 11 11 12 19 25 25 25 25 26
4 4 3 3 2 1 1 1 2 3 4 5 7 8 9 10 11 10 7 8 8 8 8 9 10 9 9 9 9 8 7 12 10 10 10 11 13 15 16 16 15 16 17 19 19 15 13 13 12 14 13 14 15 13 12 13 13 14 13 13 12 12 12 13 13 13 10 8 13 16 19 14 9 14 16 12 10 10 12 17 22 23 24 25 26
4 2 2 3 2 1 1 2 3 3 4 5 8 9 10 11 11 10 8 8 8 9 9 9 8 9 9 9 9 9 9 10 10 10 10 10 11 10 10 10 10 13 17 20 22 24 20 15 15 15 16 15 15 15 14 14 15 14 13 13 13 13 13 13 14 13 12 9 12 15 17 13 9 12 14 12 10 11 11 16 24 24 24 25 25
4 3 3 2 2 1 2 2 3 4 4 8 9 9 10 11 11 11 7 7 8 8 8 8 9 9 10 10 10 11 11 11 10 12 12 13 11 10 10 11 12 13 14 15 15 14 14 14 15 16 16 15 16 18 15 14 16 14 13 14 14 14 15 14 13 12 13 9 11 11 14 12 9 13 14 12 11 13 11 17 26 28 29 27 25
2 2 1 2 2 2 2 2 2 5 5 8 9 9 10 10 12 7 6 7 7 8 8 9 9 9 9 10 10 11 12 12 14 19 17 14 12 11 12 12 13 13 13 16 22 22 19 18 17 17 15 16 19 17 16 15 11 12 13 13 13 12 12 12 12 9 9 8 10 12 12 12 9 13 15 10 11 13 11 10 17 23 24 27 29
3 2 3 2 2 2 2 3 3 4 5 6 8 9 10 11 9 5 6 6 7 8 8 9 9 9 9 10 10 11 13 13 17 20 20 20 13 13 13 14 12 11 11 11 18 23 25 28 29 29 29 28 28 27 26 26 18 15 10 11 10 9 11 12 12 9 10 10 7 10 12 12 9 12 14 11 11 12 11 11 10 15 23 23 23
3 3 2 2 2 2 3 3 3 4 4 6 9 10 10 10 8 7 6 6 8 8 9 9 9 9 10 15 15 14 15 14 19 22 22 18 13 12 12 13 14 13 13 13 12 13 22 25 27 27 26 25 25 25 24 23 22 17 10 12 11 10 12 11 13 10 10 9 11 9 11 11 10 10 12 11 12 9 10 10 11 12 18 18 22
3 2 2 2 2 2 3 3 6 6 5 6 8 9 10 9 7 5 6 6 8 8 8 9 9 9 11 13 17 16 16 17 22 21 22 18 12 11 12 13 14 14 12 12 15 13 12 10 9 11 11 14 13 13 13 22 23 21 14 13 10 10 12 11 12 11 11 7 8 7 9 8 9 9 9 11 12 9 6 9 8 8 8 8 11
Wind_Direction
222 244 225 181 26 24 271 169 149 88 72 101 116 133 133 116 96 68 47 31 30 36 54 44 37 49 37 41 22 0 354 340 346 335 320 317 320 104 78 32 348 342 337 332 325 321 323 327 328 330 339 358 1 324 277 265 251 262 222 256 271 262 116 142 149 155 176 254 343 336 329 330 336 334 337 335 326 312 295 2 11 352 355 38 31
3 27 35 26 27 36 36 47 71 72 130 124 129 137 110 115 93 105 107 72 68 50 346 79 87 72 48 30 37 15 353 345 340 339 340 324 314 104 127 123 321 324 333 332 328 328 327 326 327 328 334 339 344 343 354 341 292 246 266 321 338 358 119 167 177 189 169 186 261 303 329 309 318 328 317 327 327 316 286 274 275 345 324 314 303
63 54 70 64 61 61 68 82 100 108 98 94 94 67 63 63 68 118 93 82 80 66 333 74 87 90 81 23 10 317 27 336 331 336 323 330 335 322 170 171 219 277 313 321 329 336 334 332 328 331 330 332 338 337 340 337 345 254 248 278 311 305 159 179 189 181 178 191 208 236 258 278 286 301 302 310 325 317 313 305 291 295 305 299 317
51 59 77 72 74 72 62 55 68 43 29 43 63 60 70 74 85 62 66 82 62 72 308 249 148 128 156 188 206 208 245 335 269 289 316 317 301 303 314 207 188 218 232 304 331 337 342 341 344 338 335 334 335 340 339 342 346 351 325 291 250 251 273 245 180 186 193 208 214 223 224 248 277 265 304 307 289 318 317 308 299 297 304 302 303
53 52 56 77 83 75 69 59 62 71 70 67 71 87 111 127 124 172 97 135 2 359 216 280 268 177 215 189 267 223 205 247 221 216 251 260 274 284 299 298 311 189 194 227 262 330 350 358 355 350 346 343 343 339 336 335 334 330 327 324 338 313 274 290 178 192 190 196 219 228 231 237 237 269 289 300 297 279 280 300 309 300 308 323 312
71 73 66 69 69 74 69 60 41 32 19 67 117 115 85 65 146 178 166 299 321 354 329 332 333 318 281 167 275 295 278 259 251 256 226 236 247 275 278 311 305 331 155 189 196 134 32 12 359 355 350 351 346 340 338 336 334 332 331 331 330 336 321 303 245 191 200 205 218 220 224 230 243 274 278 280 287 284 286 291 287 295 295 284 291
48 64 76 77 74 69 63 55 30 39 41 20 37 44 46 52 293 313 82 301 317 335 323 322 333 327 327 313 299 329 279 256 253 251 259 298 284 295 315 311 343 337 4 344 155 132 71 25 357 348 346 349 344 342 338 336 335 334 333 329 333 327 328 338 339 296 217 220 218 226 219 225 259 267 273 284 280 285 283 279 285 294 294 296 295
58 56 57 61 62 60 60 53 40 35 36 25 27 41 38 23 21 3 349 358 0 1 341 336 338 335 324 316 314 313 311 299 295 291 29 342 345 352 345 0 356 12 328 314 348 100 75 23 348 337 338 340 341 339 338 335 332 330 328 329 329 328 331 334 331 333 324 274 269 309 228 225 247 258 280 284 279 292 292 279 277 283 289 291 293
36 42 54 54 52 53 54 55 49 50 47 46 42 32 28 52 44 25 15 355 27 15 4 360 350 330 320 308 297 299 294 325 337 24 41 1 8 9 2 23 24 340 354 358 360 339 110 20 323 324 324 326 336 335 334 333 326 326 324 325 323 322 325 326 327 329 332 334 252 248 273 262 241 238 271 284 288 285 273 282 286 282 284 286 288
38 41 52 50 49 48 47 44 44 45 50 50 44 36 37 25 46 48 35 30 30 19 3 344 326 308 308 308 308 303 313 313 38 23 34 27 37 26 20 25 38 20 13 8 360 6 350 344 308 292 272 298 331 336 334 327 326 323 321 317 316 315 317 318 320 318 326 325 322 285 268 263 275 276 271 283 290 275 275 275 275 279 278 275 277
48 42 49 48 50 50 48 46 47 46 44 42 42 38 41 44 35 46 68 46 29 21 351 324 313 303 303 312 312 313 324 30 24 43 38 38 48 67 43 49 54 37 26 10 24 3 5 356 359 355 8 356 324 332 332 332 332 326 320 317 315 315 312 314 310 313 314 318 320 327 289 257 265 273 274 274 268 270 271 271 271 274 278 277 273
43 51 57 59 60 55 54 47 45 46 46 42 35 30 22 32 44 30 47 62 36 10 348 330 310 322 330 317 314 340 57 44 60 36 15 32 54 37 46 52 36 28 22 18 25 18 7 6 2 357 350 351 340 323 320 328 320 322 329 330 326 320 316 313 312 310 310 310 312 311 313 314 307 276 267 272 272 268 277 280 270 268 271 263 259
34 38 44 51 52 51 50 51 50 47 46 42 36 30 22 14 31 57 35 44 32 11 356 327 346 340 333 317 323 88 82 110 56 355 21 56 54 45 53 41 29 19 17 21 24 17 8 4 2 349 346 346 341 345 341 327 304 321 344 337 332 327 324 319 314 311 308 306 304 303 304 303 303 311 297 271 264 269 273 269 274 273 273 267 250
32 33 39 43 48 50 48 44 46 50 47 42 35 30 25 23 8 44 61 48 44 16 9 352 12 353 334 342 63 88 103 110 23 34 55 64 73 60 58 50 32 12 3 5 10 5 9 1 356 345 342 340 337 336 333 339 353 359 334 338 336 337 333 330 324 317 310 305 301 301 300 296 298 296 295 300 288 267 266 275 270 274 274 269 243
37 36 36 36 42 48 48 47 48 47 49 44 37 35 27 24 25 16 20 54 53 33 23 20 2 337 321 324 24 315 143 157 13 29 59 43 59 63 41 43 28 9 357 13 10 5 5 2 351 344 342 338 334 332 330 331 349 331 327 330 335 339 337 333 330 325 321 314 307 302 297 295 294 290 291 293 296 300 276 258 270 267 273 276 261
40 42 44 41 42 48 51 50 52 52 52 50 42 38 31 27 26 25 15 36 29 37 33 27 20 5 17 346 310 334 358 21 348 331 30 51 47 45 39 35 22 4 0 17 9 2 3 356 351 345 342 334 332 332 328 334 325 331 336 339 350 340 337 333 331 328 325 321 317 311 302 300 295 292 290 287 288 289 296 283 268 274 276 286 274
45 43 44 45 43 44 47 50 51 49 52 52 48 41 35 32 27 30 26 23 33 25 37 37 33 27 22 3 3 11 21 336 327 211 26 360 45 29 37 31 20 355 359 16 4 1 4 349 348 343 339 334 332 332 331 329 345 339 335 351 337 339 340 339 335 334 331 328 324 319 316 311 306 301 294 289 286 282 282 285 285 280 280 278 280
44 44 42 43 43 42 43 47 48 46 47 50 49 44 37 33 29 29 28 21 30 32 25 31 43 31 33 49 28 6 339 328 346 329 336 349 26 13 4 29 10 344 2 9 354 4 2 340 343 338 334 335 337 332 334 342 343 337 339 336 345 349 349 346 343 340 337 334 329 325 321 316 314 311 306 302 294 289 284 282 282 285 282 279 280
46 44 42 41 43 42 43 46 47 48 46 48 46 44 41 35 31 35 34 26 23 42 32 16 28 35 27 28 21 12 358 358 356 327 331 338 347 337 350 10 359 333 353 358 340 357 351 335 331 336 324 328 328 327 334 335 337 336 347 356 350 349 350 349 345 341 340 338 336 332 326 322 319 315 311 306 303 299 293 288 285 283 281 281 278
48 44 42 40 39 40 39 43 46 44 44 47 45 39 39 36 34 33 37 37 31 32 33 27 26 17 13 18 16 0 5 35 13 354 318 312 318 317 37 347 344 331 350 340 334 347 336 324 325 326 320 316 323 328 326 335 326 353 7 352 350 351 350 347 343 340 338 337 336 336 332 328 322 318 315 311 306 301 297 292 288 283 282 279 276
48 46 43 41 39 40 38 41 42 41 41 45 43 41 41 37 33 31 28 34 38 28 27 25 24 17 3 8 10 8 356 5 359 354 333 315 307 331 323 319 297 290 343 321 324 329 321 308 316 314 303 310 325 328 324 324 321 360 349 350 348 349 348 343 338 337 334 332 332 330 329 328 327 325 320 315 310 306 301 297 292 290 286 280 277
54 46 44 42 38 37 38 39 40 38 39 39 39 41 39 39 39 38 30 30 32 32 30 12 10 22 5 359 5 359 357 354 358 346 325 308 313 320 328 329 328 334 327 321 319 310 305 298 303 304 292 306 312 311 322 312 315 299 322 347 340 341 340 334 331 329 327 325 324 322 321 321 320 320 320 319 316 311 306 301 297 294 291 289 286
56 49 42 38 42 39 40 39 38 38 37 34 33 31 36 37 36 40 38 32 23 24 29 22 7 14 10 6 7 5 353 350 345 344 332 326 322 317 320 321 319 315 326 315 302 291 281 282 294 292 288 294 301 302 314 304 288 286 251 305 337 331 329 325 322 320 318 318 317 317 316 316 316 315 314 313 312 311 309 306 302 298 293 289 288
57 51 40 35 39 38 36 39 37 32 31 29 27 23 29 37 35 35 33 31 26 22 25 20 14 8 9 2 2 355 347 352 343 333 330 324 320 312 318 323 310 300 313 305 295 288 258 264 275 277 275 281 297 310 302 294 292 315 319 1 327 324 319 316 313 310 309 308 309 310 311 312 312 312 311 309 308 307 305 306 306 304 300 294 289
50 48 40 35 35 35 33 31 31 29 25 23 21 19 19 33 33 31 31 28 23 13 27 12 12 7 356 348 355 346 344 349 340 331 327 322 319 314 314 319 311 313 315 320 316 294 264 274 272 261 250 270 287 289 295 297 301 314 33 317 320 308 303 298 297 298 298 299 301 302 305 307 308 307 307 307 307 306 305 304 303 302 302 301 297
55 47 35 36 41 38 38 38 33 29 25 20 19 20 12 27 33 27 26 23 14 7 20 9 3 2 347 346 348 335 335 344 338 332 330 330 323 322 315 310 301 304 307 312 316 318 304 254 267 265 281 285 291 292 289 289 292 307 330 311 306 303 301 295 295 295 294 293 294 297 299 300 301 302 303 303 304 304 303 303 302 301 300 300 299
60 52 40 40 39 42 38 35 30 27 23 17 11 19 11 17 30 26 22 19 359 5 358 2 351 351 340 349 334 325 336 333 331 327 325 322 321 318 319 318 312 299 305 307 307 298 305 306 312 308 294 294 293 292 289 290 300 300 293 300 302 303 297 297 297 294 292 290 290 292 294 294 295 295 297 298 298 299 299 299 298 299 299 299 298
70 59 48 43 34 34 40 35 28 25 21 19 11 10 3 12 20 20 19 9 349 349 352 350 352 339 337 340 328 324 326 327 324 317 312 314 311 307 309 306 310 311 314 306 307 295 310 309 303 284 289 293 294 290 292 297 298 307 307 301 298 293 291 292 292 292 292 290 289 289 290 288 287 287 289 291 291 292 293 292 292 291 291 291 291
64 55 49 41 37 27 29 30 24 18 13 14 10 2 346 9 13 3 11 356 341 339 340 338 339 334 334 331 320 317 316 322 314 312 314 303 297 297 292 292 300 297 307 304 298 305 312 310 303 307 309 308 311 312 310 306 303 305 299 295 291 285 282 285 289 292 292 292 289 288 286 284 282 283 284 285 286 286 287 287 288 288 287 287 288
67 57 53 41 40 29 29 23 22 14 8 9 1 356 345 3 356 354 11 347 335 333 330 331 328 326 317 318 313 310 312 316 311 308 299 297 292 292 290 290 291 286 289 294 293 288 293 297 293 303 313 308 305 300 299 297 292 291 286 288 289 288 286 283 284 286 286 286 286 285 284 283 282 281 280 280 281 282 283 283 284 284 284 284 284
68 63 50 47 37 23 35 17 11 6 6 4 358 354 342 355 346 352 358 345 327 319 312 320 305 309 308 302 300 298 305 303 302 297 294 290 291 290 290 286 280 275 278 282 288 279 281 295 290 290 303 305 301 298 297 295 293 289 289 286 283 281 283 282 277 275 278 281 282 282 280 279 279 278 279 279 278 278 279 280 281 281 282 283 282
80 67 62 49 37 28 15 21 355 359 360 357 348 342 331 345 332 339 331 317 306 302 302 308 300 289 291 295 294 297 301 302 298 298 295 295 294 290 287 284 277 275 276 278 274 284 291 286 289 291 290 298 304 303 301 295 292 293 287 285 294 297 293 291 287 285 286 288 286 282 282 282 281 280 280 281 280 279 278 276 277 278 278 279 279
91 100 86 68 41 34 10 355 11 340 358 345 340 333 330 327 317 312 305 304 299 297 306 300 293 290 295 296 294 294 297 296 298 299 297 294 291 287 286 286 283 282 283 280 282 288 290 283 285 294 298 298 292 299 302 303 299 301 301 303 305 298 293 289 289 285 285 287 287 286 284 281 280 279 280 281 282 282 281 278 276 275 276 275 275
126 119 116 105 63 30 338 326 339 340 336 342 324 334 326 318 315 307 296 305 303 300 300 300 304 306 298 297 300 302 305 300 299 295 294 297 296 291 288 286 287 287 286 288 283 285 291 300 293 292 299 296 288 295 301 310 309 310 307 303 295 288 285 289 289 290 286 285 286 286 285 284 282 281 280 281 282 283 283 282 280 277 274 274 274
149 141 127 147 150 213 223 279 290 311 331 325 325 316 316 313 313 309 306 305 303 301 303 300 304 304 304 301 300 305 308 305 299 296 296 292 292 294 294 294 288 287 286 282 285 285 290 291 298 301 302 308 306 308 311 305 302 307 308 307 306 304 299 293 290 288 290 292 291 288 286 286 285 284 282 280 280 283 284 283 280 278 275 273 273
157 144 148 166 183 187 217 198 288 287 322 322 314 320 311 311 307 305 301 299 295 295 294 298 302 303 299 300 299 309 306 298 297 297 293 291 298 297 294 291 287 287 288 286 282 284 289 294 298 303 311 310 314 312 314 309 304 304 308 311 312 309 308 305 301 298 296 294 293 293 291 287 285 284 284 283 280 280 281 282 281 279 276 275 272
156 154 172 169 190 181 178 179 282 308 323 319 318 315 313 306 303 300 298 295 292 291 290 290 294 295 298 294 297 300 300 296 295 296 298 301 296 295 294 296 293 292 294 294 293 292 291 289 295 298 307 306 309 310 313 315 312 308 311 310 310 307 305 302 299 295 297 308 312 312 310 307 301 293 287 283 281 279 279 279 279 279 278 277 275
161 169 172 182 175 182 164 172 278 317 326 322 316 310 310 308 301 295 294 295 295 295 295 295 293 295 292 293 294 296 294 294 295 299 298 297 303 298 298 297 299 300 297 296 292 291 290 288 293 300 304 310 312 309 316 317 312 309 304 300 295 295 298 305 312 320 323 316 312 309 305 301 296 295 295 291 287 285 282 278 276 277 279 279 277
180 179 175 176 192 158 178 139 258 325 308 304 302 313 310 307 301 299 300 299 295 294 292 294 294 290 290 289 290 289 289 290 293 293 301 304 300 297 297 300 299 300 298 296 297 297 294 295 295 296 302 306 308 309 314 312 307 301 303 305 300 305 316 319 312 310 310 308 307 307 304 301 298 296 291 288 284 282 280 279 279 280 280 280 279
183 185 180 182 186 168 165 158 186 265 297 292 302 317 322 316 313 310 307 302 299 299 299 297 295 289 286 287 283 284 283 283 289 298 300 297 295 293 292 292 294 295 295 296 297 296 294 294 292 298 301 302 306 300 306 311 308 305 308 312 309 310 307 301 297 303 308 308 306 298 295 298 301 301 301 299 295 292 292 286 278 269 271 275 275
188 182 180 178 189 176 165 172 185 256 274 283 307 346 326 316 313 309 303 300 301 300 298 296 294 292 288 287 285 282 286 287 284 283 285 283 285 287 288 287 291 293 291 292 293 293 292 291 294 296 297 299 302 308 311 311 307 306 310 308 298 300 301 300 300 300 305 304 302 302 299 299 296 293 292 299 309 319 318 316 307 287 265 265 267
191 180 174 180 178 172 165 176 192 230 265 262 274 295 298 305 307 303 301 297 301 301 302 300 297 293 290 291 288 288 287 286 285 284 284 286 283 279 282 286 285 287 289 291 290 290 291 290 290 296 296 296 301 305 302 301 299 299 299 298 297 304 307 300 296 300 304 304 301 297 297 311 313 306 303 297 296 295 292 295 294 297 300 301 294
192 177 180 177 166 154 162 173 246 253 248 250 272 296 303 307 306 301 298 299 298 298 298 295 296 298 298 298 293 293 292 291 290 291 294 292 290 287 284 282 281 282 288 288 285 287 285 283 286 288 288 291 295 297 297 298 295 293 294 299 300 304 305 305 303 304 305 304 304 302 297 307 312 304 301 297 300 298 293 282 282 283 284 285 286
194 173 173 155 146 158 159 212 249 257 270 276 289 299 305 306 305 301 298 296 296 295 292 292 294 298 298 296 291 291 292 292 294 295 292 289 289 289 288 287 284 281 278 277 281 281 278 281 281 279 287 287 290 292 293 292 292 291 291 293 294 293 293 293 294 297 303 304 299 299 295 301 304 292 290 290 289 287 285 289 291 291 288 283 281
185 177 155 140 155 144 190 249 267 272 274 283 291 301 305 306 305 305 295 292 290 288 287 290 291 289 290 294 295 292 292 295 294 290 289 292 292 291 293 292 289 284 279 277 275 273 277 275 274 277 277 285 285 284 283 283 286 288 288 285 284 282 282 283 285 288 293 301 296 294 292 297 305 290 287 287 285 282 282 285 287 288 289 290 288
187 154 141 151 153 168 211 273 272 276 279 287 299 301 304 305 306 305 293 290 285 284 285 287 287 289 293 295 296 294 295 296 293 291 291 293 295 297 296 292 289 283 281 279 279 281 280 278 277 275 274 270 273 274 274 276 280 280 282 281 283 283 279 274 278 281 289 293 286 292 287 295 291 284 286 292 292 284 283 288 290 291 290 286 284
172 163 160 161 167 181 247 255 269 275 273 284 293 299 303 306 305 307 296 292 288 286 286 286 286 291 292 290 292 292 292 291 288 289 292 291 292 287 282 275 271 276 274 271 271 268 268 271 268 268 269 267 266 270 271 273 272 272 271 275 278 278 280 278 273 274 283 277 279 282 283 296 301 291 286 293 295 288 289 289 286 284 285 288 289
149 134 141 152 179 204 235 258 263 266 273 285 295 299 303 303 308 307 298 291 290 287 287 286 285 286 286 286 287 288 288 287 287 289 289 289 286 280 276 270 267 265 264 265 266 267 269 269 262 260 258 258 262 266 268 266 263 265 267 272 279 285 286 286 285 290 282 288 279 282 281 284 292 286 287 291 290 289 292 287 290 290 285 282 281
156 158 156 179 191 201 223 237 252 265 269 283 294 298 299 302 308 301 293 289 286 289 285 285 284 282 283 282 283 284 286 285 287 289 291 292 288 279 274 272 264 260 261 263 265 267 269 271 276 279 277 280 285 288 289 289 289 289 287 288 290 297 290 290 287 287 284 289 277 275 279 283 283 285 290 291 286 286 288 288 286 286 288 288 287
157 161 173 180 196 210 224 239 250 265 270 283 290 295 297 298 299 294 291 288 287 287 287 284 282 280 279 283 282 284 284 285 286 288 289 290 281 279 277 280 279 274 272 273 275 274 273 276 279 285 290 292 297 301 301 300 298 298 296 288 287 283 279 278 284 284 285 285 283 280 278 274 283 280 287 291 291 282 288 290 293 294 295 297 299
147 158 177 186 194 217 228 241 259 263 268 274 282 288 291 292 293 286 283 285 286 284 288 288 285 283 279 273 276 285 286 288 291 294 296 297 293 290 286 282 281 277 276 276 281 281 285 288 289 295 297 295 292 287 282 283 284 284 280 278 279 270 272 273 276 286 285 277 283 287 282 287 292 289 303 305 291 281 274 282 282 291 299 305 306